Aérodrome :
LOGIN :

S'inscrire | Disclaimer

   EN    FR    IT 

 










Légende :    VFR   VFR Marginal   IFR   IFR Intensif   IFR Très Intensif
Visi : 
Plafond : 
>= 8 km
>= 3000ft
5 à 8 km
1000 à 3000 ft
1500m à 5 km
500 à 1000 ft
800 à 1500m
200 à 500 ft
< 800m
< 200 ft
Symboles :   Orages  Brouillard  Fortes neiges  Fortes précipitations  Vent > 20 kt
SIGMETs :   Divers  Orages  Givrage  Turbulence  Onde Orograph.  Cendres Volcan.







- Altitude de l'aérodrome : 326 ft
- Code IATA : LCG
- Voir les cartes d'approche


LECO - A Coruna

DERNIER METAR :
  • 191800Z 02008KT 340V060 CAVOK 22/15 Q1023 NOSIG

METARs EXPIRÉS :
  • 191730Z 01008KT 310V060 CAVOK 22/15 Q1023 NOSIG
  • 191700Z 03010KT 320V070 CAVOK 22/15 Q1023 NOSIG
  • 191630Z 36006G18KT 280V080 CAVOK 23/15 Q1023 NOSIG
  • 191600Z 35010KT 320V040 CAVOK 23/15 Q1023 NOSIG

TAF TAF LECO
Valide du 19 à 15h jusqu'au 20 à 15h UTC


191400Z 1915/2015 02009KT CAVOK TX30/2015Z TN16/2005Z
TEMPO 1915/1921 36015G25KT
Pas de NOTAMs connus pour ce terrain.



MET'MAP, la Météo Aéronautique d'un coup d'oeil ! - Copyright ORBIFLY Décembre 2007 - Disclaimer

ORBIFLY MET'MAP TEAM :

Programmation & Développement : Alexandra Zaïnal
Conception & Développement : Baudouin d'Aumeries
Co-Programmation & Développement : Marc-Olivier Méhu
Soutien technique & logistique : Manuel Goepfert

Contact : metmap@orbifly.com




SOURCES & CREDITS :

   NOAA